De Queen, AR

11:06 PM CST on December 09, 2019 (GMT -0600)
Helms Sevier County

Weather History for KDEQ - August, 2019

Change the Weather History Date:

Wednesday, August 7, 2019

  Actual Average Record
Temperature  
Mean Temperature 85 °F 82 °F  
Max Temperature 97 °F 94 °F 107 °F (1954)
Min Temperature 73 °F 69 °F 56 °F (1957)
Degree Days  
Heating Degree Days 0 0  
Month to date heating degree days 0 0  
Since 1 June heating degree days 0 0  
Since 1 July heating degree days 0 0  
Cooling Degree Days 20 17  
Month to date cooling degree days 124 115  
Year to date cooling degree days 1261 1207  
Since 1 June cooling degree days 988 990  
Growing Degree Days 35 (Base 50)    
Moisture  
Dew Point 76 °F    
Average Humidity 90    
Maximum Humidity 100    
Minimum Humidity 54    
Precipitation  
Precipitation 0.00 in 0.07 in 2.15 in (1942)
Month to date precipitation 0.08 0.48  
Year to date precipitation 37.16 29.90  
Snow  
Snow 0.00 in - - ()
Month to date snowfall 0.0  
Since 1 June snowfall 0.0  
Since 1 July snowfall 0.0  
Snow Depth 0.00 in    
Sea Level Pressure  
Sea Level Pressure 29.88 in    
Wind  
Wind Speed 1 mph ()    
Max Wind Speed 10 mph    
Max Gust Speed 13 mph    
Visibility 4.2 miles    
Events Fog    
T = Trace of Precipitation, MM = Missing Value Source: Averaged Metar Reports

Daily Weather History Graph

Daily Weather History Graph

Search for Another Location

Airport or City:

Astronomy

Aug. 07, 2019 Rise Set
Actual Time 6:33 AM CDT 8:13 PM CDT
Civil Twilight 6:06 AM CDT 8:40 PM CDT
Nautical Twilight 5:33 AM CDT 9:12 PM CDT
Astronomical Twilight 4:59 AM CDT 9:46 PM CDT
Moon 1:45 PM CDT (8/7) 12:18 AM CDT (8/7)
Length of Visible Light 14h 33m
Length of Day
13h 39m
Waxing Crescent, 50% of the Moon is Illuminated
Aug 7
Waxing Crescent
Aug 7
First Quarter
Aug 15
Full
Aug 23
Last Quarter
Aug 30
New

Hourly Weather History & Observations

Time (CDT) Temp. Heat Index Dew Point Humidity Pressure Visibility Wind Dir Wind Speed Gust Speed Precip Events Conditions
12:08 AM 77.0 °F - 77.0 °F 100% 29.91 in 1.8 mi ESE 3.5 mph - N/A   Clear
12:12 AM 77.0 °F - 77.0 °F 100% 29.90 in 3.0 mi ESE 3.5 mph - N/A   Clear
12:39 AM 77.0 °F - 77.0 °F 100% 29.90 in 1.8 mi Calm Calm - N/A   Clear
12:53 AM 75.9 °F - 75.9 °F 100% 29.89 in 2.5 mi Calm Calm - N/A   Clear
1:26 AM 75.9 °F - 75.9 °F 100% 29.90 in 1.2 mi Calm Calm - N/A   Partly Cloudy
1:29 AM 75.9 °F - 75.9 °F 100% 29.90 in 0.8 mi Calm Calm - N/A   Mist
1:42 AM 77.0 °F - 77.0 °F 100% 29.90 in 1.2 mi Calm Calm - N/A   Partly Cloudy
1:51 AM 75.2 °F - 75.2 °F 100% 29.90 in 2.5 mi ESE 3.5 mph - N/A   Partly Cloudy
1:53 AM 75.9 °F - 75.9 °F 100% 29.88 in 3.0 mi ESE 3.5 mph - N/A   Partly Cloudy
2:13 AM 75.9 °F - 75.9 °F 100% 29.89 in 2.5 mi Calm Calm - N/A   Clear
2:21 AM 75.9 °F - 75.9 °F 100% 29.89 in 3.0 mi Calm Calm - N/A   Clear
2:53 AM 75.0 °F - 75.0 °F 100% 29.88 in 2.0 mi Calm Calm - N/A   Clear
3:13 AM 75.0 °F - 75.0 °F 100% 29.89 in 1.0 mi Calm Calm - N/A   Mist
3:22 AM 75.0 °F - 75.0 °F 100% 29.89 in 0.8 mi Calm Calm - N/A   Mist
3:53 AM 75.0 °F - 75.0 °F 100% 29.87 in 0.5 mi Calm Calm - N/A Fog Fog
4:02 AM 75.0 °F - 75.0 °F 100% 29.89 in 1.2 mi Calm Calm - N/A   Clear
4:16 AM 77.0 °F - 75.0 °F 94% 29.89 in 3.0 mi Calm Calm - N/A   Clear
4:39 AM 73.9 °F - 73.9 °F 100% 29.90 in 1.8 mi Calm Calm - N/A   Clear
4:53 AM 75.0 °F - 75.0 °F 100% 29.88 in 0.5 mi Calm Calm - N/A Fog Fog
5:19 AM 75.0 °F - 75.0 °F 100% 29.90 in 2.0 mi Calm Calm - N/A   Clear
5:27 AM 75.0 °F - 75.0 °F 100% 29.90 in 3.0 mi Calm Calm - N/A   Clear
5:34 AM 73.9 °F - 73.9 °F 100% 29.90 in 2.5 mi Calm Calm - N/A   Clear
5:42 AM 73.9 °F - 73.9 °F 100% 29.90 in 1.0 mi Calm Calm - N/A   Clear
5:45 AM 73.9 °F - 73.9 °F 100% 29.90 in 0.8 mi Calm Calm - N/A   Mist
5:53 AM 73.9 °F - 73.9 °F 100% 29.88 in 0.5 mi Calm Calm - N/A Fog Fog
6:48 AM 73.4 °F - 73.4 °F 100% 29.91 in 1.2 mi Calm Calm - N/A   Partly Cloudy
6:53 AM 73.9 °F - 73.9 °F 100% 29.89 in 2.5 mi Calm Calm - N/A   Clear
7:21 AM 75.0 °F - 75.0 °F 100% 29.91 in 1.5 mi Calm Calm - N/A   Clear
7:37 AM 75.9 °F - 75.9 °F 100% 29.91 in 2.0 mi Calm Calm - N/A   Partly Cloudy
7:53 AM 78.1 °F - 77.0 °F 96% 29.90 in 3.0 mi Calm Calm - N/A   Clear
8:53 AM 82.9 °F 92.8 °F 78.1 °F 85% 29.90 in 6.0 mi Calm Calm - N/A   Haze
10:53 AM 90.0 °F 105.8 °F 79.0 °F 70% 29.90 in 10.0 mi SSW 5.8 mph - N/A   Clear
11:53 AM 91.9 °F 108.8 °F 79.0 °F 66% 29.90 in 10.0 mi West 9.2 mph - N/A   Clear
12:53 PM 93.0 °F 112.1 °F 80.1 °F 66% 29.89 in 10.0 mi West 4.6 mph - N/A   Partly Cloudy
1:53 PM 95.0 °F 111.4 °F 78.1 °F 58% 29.88 in 10.0 mi SW 5.8 mph - N/A   Clear
2:53 PM 95.0 °F 109.7 °F 77.0 °F 56% 29.86 in 10.0 mi South 5.8 mph - N/A   Partly Cloudy
3:53 PM 96.1 °F 112.8 °F 78.1 °F 56% 29.84 in 10.0 mi South 8.1 mph - N/A   Clear
4:53 PM 96.1 °F 111.0 °F 77.0 °F 54% 29.83 in 10.0 mi South 5.8 mph - N/A   Clear
5:53 PM 96.1 °F 111.0 °F 77.0 °F 54% 29.81 in 10.0 mi SSW 6.9 mph - N/A   Clear
6:53 PM 93.9 °F 108.4 °F 77.0 °F 58% 29.81 in 10.0 mi SSE 3.5 mph - N/A   Clear
7:53 PM 91.0 °F 109.1 °F 80.1 °F 70% 29.80 in 10.0 mi South 3.5 mph - N/A   Clear
8:53 PM 84.0 °F 98.1 °F 81.0 °F 90% 29.82 in 10.0 mi Calm Calm - N/A   Clear
9:53 PM 82.0 °F 93.7 °F 81.0 °F 97% 29.83 in 10.0 mi East 3.5 mph - N/A   Clear
10:53 PM 80.1 °F 87.4 °F 80.1 °F 100% 29.85 in 5.0 mi Calm Calm - N/A   Clear
11:53 PM 79.0 °F - 79.0 °F 100% 29.86 in 4.0 mi East 3.5 mph - N/A   Clear